Location: Champaign/Urbana Astronomical Society Observatory
(40.0333°N, 88.2833°W)
Time: 01:32:34
(UTC-06:00)

ISS - Visible Passes

Search period start: 21 February 2019 00:00
Search period end: 03 March 2019 00:00
Orbit: 403 x 411 km, 51.6° (Epoch: 21 February)

Date Brightness Start Highest point End Pass type
(mag) Time Alt. Az. Time Alt. Az. Time Alt. Az.
21 Feb -0.9 05:49:09 10° S 05:51:26 18° SE 05:53:43 10° E visible
23 Feb -2.8 05:41:45 10° SSW 05:44:54 45° SE 05:48:02 10° ENE visible
24 Feb -1.7 04:52:00 17° S 04:53:35 23° SE 04:56:15 10° ENE visible
25 Feb -0.5 04:03:14 11° ESE 04:03:14 11° ESE 04:03:47 10° ESE visible
25 Feb -3.8 05:35:59 16° WSW 05:38:27 67° NW 05:41:43 10° NE visible
26 Feb -3.6 04:47:01 63° SE 04:47:01 63° SE 04:50:15 10° ENE visible
27 Feb -0.6 03:57:53 15° ENE 03:57:53 15° ENE 03:58:34 10° ENE visible
27 Feb -2.7 05:30:37 20° WNW 05:32:08 30° NNW 05:35:06 10° NE visible
28 Feb -2.8 04:41:22 39° NNE 04:41:22 39° NNE 04:43:45 10° NE visible
01 Mar -0.4 03:52:00 12° NE 03:52:00 12° NE 03:52:19 10° NE visible
01 Mar -1.9 05:24:43 15° NW 05:25:56 18° NNW 05:28:17 10° NNE visible
02 Mar -1.8 04:35:17 21° N 04:35:17 21° N 04:37:01 10° NNE visible
